Montevideo, MN

3:00 AM CST on November 18, 2019 (GMT -0600)
Montevideo-Chippewa County

Weather History for KMVE - October, 2019

Change the Weather History Date:

Tuesday, October 22, 2019

  Actual Average Record
Temperature  
Mean Temperature 42 °F -  
Max Temperature 48 °F 59 °F 80 °F (1989)
Min Temperature 33 °F 35 °F 19 °F (1997)
Degree Days  
Heating Degree Days 24    
Moisture  
Dew Point 30 °F    
Average Humidity 68    
Maximum Humidity 100    
Minimum Humidity 34    
Precipitation  
Precipitation 0.03 in - - ()
Sea Level Pressure  
Sea Level Pressure 29.64 in    
Wind  
Wind Speed 20 mph ()    
Max Wind Speed 30 mph    
Max Gust Speed 44 mph    
Visibility 10.0 miles    
Events Rain    
Averages and records for this station are not official NWS values.
T = Trace of Precipitation, MM = Missing Value Source: Averaged Metar Reports

Daily Weather History Graph

Daily Weather History Graph

Search for Another Location

Airport or City:

Astronomy

Oct. 22, 2019 Rise Set
Actual Time 7:47 AM CDT 6:26 PM CDT
Civil Twilight 7:17 AM CDT 6:56 PM CDT
Nautical Twilight 6:43 AM CDT 7:30 PM CDT
Astronomical Twilight 6:09 AM CDT 8:04 PM CDT
Moon 12:36 AM CDT (10/22) 3:56 PM CDT (10/22)
Length of Visible Light 11h 38m
Length of Day
10h 39m
Last Quarter, 37% of the Moon is Illuminated
Oct 22
Last Quarter
Oct 27
New
Nov 4
First Quarter
Nov 12
Full
Nov 19
Last Quarter

Hourly Weather History & Observations

Time (CDT) Temp. Windchill Dew Point Humidity Pressure Visibility Wind Dir Wind Speed Gust Speed Precip Events Conditions
12:15 AM 39.2 °F 27.6 °F 39.2 °F 100% 29.45 in 10.0 mi North 28.8 mph 40.3 mph N/A   Light Drizzle
12:35 AM 41.0 °F 30.2 °F 39.2 °F 93% 29.46 in 10.0 mi North 27.6 mph 43.7 mph N/A   Drizzle
12:36 AM 41.0 °F 30.0 °F 39.2 °F 93% 29.46 in 10.0 mi North 28.8 mph 43.7 mph N/A   Drizzle
12:55 AM 39.2 °F 27.4 °F 39.2 °F 100% 29.47 in 10.0 mi North 29.9 mph 39.1 mph N/A Rain Rain
1:16 AM 39.2 °F 28.0 °F 39.2 °F 100% 29.48 in 10.0 mi North 26.5 mph 43.7 mph N/A   Drizzle
1:35 AM 39.2 °F 28.0 °F 39.2 °F 100% 29.49 in 10.0 mi North 26.5 mph 36.8 mph N/A Rain Light Rain
1:36 AM 39.2 °F 28.3 °F 39.2 °F 100% 29.49 in 10.0 mi North 25.3 mph 36.8 mph N/A Rain Light Rain
1:55 AM 39.2 °F 29.0 °F 39.2 °F 100% 29.50 in 10.0 mi North 21.9 mph 40.3 mph N/A   Light Drizzle
1:56 AM 39.2 °F 29.0 °F 39.2 °F 100% 29.50 in 10.0 mi North 21.9 mph 40.3 mph N/A   Light Drizzle
2:15 AM 39.2 °F 29.8 °F 39.2 °F 100% 29.51 in 10.0 mi North 18.4 mph 32.2 mph N/A   Overcast
2:19 AM 39.2 °F 28.3 °F 39.2 °F 100% 29.51 in 10.0 mi North 25.3 mph 34.5 mph N/A   Overcast
2:38 AM 39.2 °F 29.3 °F 39.2 °F 100% 29.52 in 10.0 mi North 20.7 mph 38.0 mph N/A   Overcast
2:55 AM 39.2 °F 29.3 °F 39.2 °F 100% 29.51 in 10.0 mi NNW 20.7 mph 36.8 mph N/A   Overcast
3:15 AM 39.2 °F 27.8 °F 39.2 °F 100% 29.52 in 10.0 mi North 27.6 mph 34.5 mph N/A   Overcast
3:16 AM 39.2 °F 27.6 °F 39.2 °F 100% 29.52 in 10.0 mi North 28.8 mph 34.5 mph N/A   Overcast
3:35 AM 39.2 °F 28.5 °F 37.4 °F 93% 29.52 in 10.0 mi North 24.2 mph 35.7 mph N/A   Overcast
3:58 AM 39.2 °F 28.0 °F 37.4 °F 93% 29.53 in 10.0 mi North 26.5 mph 34.5 mph N/A   Overcast
4:17 AM 39.2 °F 29.3 °F 37.4 °F 93% 29.53 in 10.0 mi North 20.7 mph 31.1 mph N/A   Overcast
4:36 AM 39.2 °F 29.0 °F 37.4 °F 93% 29.54 in 10.0 mi NNW 21.9 mph 28.8 mph N/A   Overcast
4:55 AM 37.4 °F 26.4 °F 37.4 °F 100% 29.54 in 10.0 mi North 23.0 mph 32.2 mph N/A   Overcast
4:56 AM 37.4 °F 26.4 °F 37.4 °F 100% 29.54 in 10.0 mi North 23.0 mph 32.2 mph N/A   Overcast
5:15 AM 37.4 °F 26.9 °F 37.4 °F 100% 29.55 in 10.0 mi North 20.7 mph 29.9 mph N/A   Overcast
5:20 AM 37.4 °F 27.2 °F 37.4 °F 100% 29.55 in 10.0 mi NNW 19.6 mph 31.1 mph N/A   Overcast
5:37 AM 37.4 °F 27.2 °F 37.4 °F 100% 29.56 in 10.0 mi NNW 19.6 mph 39.1 mph N/A   Overcast
5:55 AM 37.4 °F 27.5 °F 37.4 °F 100% 29.56 in 10.0 mi NNW 18.4 mph 32.2 mph N/A   Overcast
6:16 AM 37.4 °F 26.1 °F 35.6 °F 93% 29.58 in 10.0 mi NNW 24.2 mph 35.7 mph N/A   Overcast
6:35 AM 37.4 °F 26.9 °F 35.6 °F 93% 29.58 in 10.0 mi NNW 20.7 mph 27.6 mph N/A   Overcast
6:36 AM 37.4 °F 27.5 °F 33.8 °F 87% 29.58 in 10.0 mi NNW 18.4 mph 27.6 mph N/A   Overcast
6:59 AM 37.4 °F 26.6 °F 33.8 °F 87% 29.59 in 10.0 mi North 21.9 mph 31.1 mph N/A   Overcast
7:16 AM 37.4 °F 26.6 °F 32.0 °F 81% 29.60 in 10.0 mi NNW 21.9 mph 34.5 mph N/A   Overcast
7:36 AM 37.4 °F 26.4 °F 30.2 °F 75% 29.60 in 10.0 mi NNW 23.0 mph 29.9 mph N/A   Overcast
7:55 AM 37.4 °F 27.5 °F 32.0 °F 81% 29.60 in 10.0 mi NNW 18.4 mph 28.8 mph N/A   Overcast
7:56 AM 37.4 °F 26.9 °F 32.0 °F 81% 29.60 in 10.0 mi NNW 20.7 mph 32.2 mph N/A   Overcast
8:15 AM 37.4 °F 27.8 °F 30.2 °F 75% 29.61 in 10.0 mi NNW 17.3 mph 31.1 mph N/A   Overcast
8:19 AM 37.4 °F 26.9 °F 30.2 °F 75% 29.61 in 10.0 mi NNW 20.7 mph 31.1 mph N/A   Overcast
8:37 AM 37.4 °F 27.2 °F 30.2 °F 75% 29.61 in 10.0 mi NNW 19.6 mph 35.7 mph N/A   Overcast
8:56 AM 37.4 °F 27.8 °F 30.2 °F 75% 29.62 in 10.0 mi NNW 17.3 mph 32.2 mph N/A   Overcast
9:15 AM 37.4 °F 27.2 °F 28.4 °F 70% 29.62 in 10.0 mi NNW 19.6 mph 32.2 mph N/A   Overcast
9:16 AM 37.4 °F 27.5 °F 28.4 °F 70% 29.62 in 10.0 mi NNW 18.4 mph 32.2 mph N/A   Overcast
9:35 AM 37.4 °F 26.6 °F 28.4 °F 70% 29.63 in 10.0 mi NNW 21.9 mph 34.5 mph N/A   Overcast
9:36 AM 37.4 °F 25.9 °F 28.4 °F 70% 29.63 in 10.0 mi NNW 25.3 mph 34.5 mph N/A   Overcast
9:58 AM 37.4 °F 26.9 °F 28.4 °F 70% 29.64 in 10.0 mi NNW 20.7 mph 31.1 mph N/A   Overcast
10:16 AM 39.2 °F 29.0 °F 28.4 °F 65% 29.64 in 10.0 mi North 21.9 mph 35.7 mph N/A   Overcast
10:35 AM 39.2 °F 29.0 °F 28.4 °F 65% 29.64 in 10.0 mi NNW 21.9 mph 34.5 mph N/A   Overcast
10:55 AM 39.2 °F 29.6 °F 28.4 °F 65% 29.65 in 10.0 mi NNW 19.6 mph 32.2 mph N/A   Overcast
10:56 AM 39.2 °F 29.8 °F 28.4 °F 65% 29.65 in 10.0 mi NNW 18.4 mph 32.2 mph N/A   Overcast
11:15 AM 41.0 °F 31.1 °F 28.4 °F 61% 29.65 in 10.0 mi NNW 23.0 mph 32.2 mph N/A   Overcast
11:19 AM 41.0 °F 30.9 °F 28.4 °F 61% 29.65 in 10.0 mi North 24.2 mph 35.7 mph N/A   Overcast
11:38 AM 42.8 °F 33.5 °F 28.4 °F 57% 29.65 in 10.0 mi North 23.0 mph 31.1 mph N/A   Overcast
11:55 AM 42.8 °F 34.5 °F 26.6 °F 53% 29.65 in 10.0 mi NNW 18.4 mph 31.1 mph N/A   Overcast
12:15 PM 42.8 °F 34.0 °F 26.6 °F 53% 29.65 in 10.0 mi NNW 20.7 mph 32.2 mph N/A   Overcast
12:16 PM 42.8 °F 33.5 °F 26.6 °F 53% 29.65 in 10.0 mi North 23.0 mph 32.2 mph N/A   Overcast
12:35 PM 44.6 °F 35.5 °F 26.6 °F 49% 29.65 in 10.0 mi NNW 25.3 mph 33.4 mph N/A   Overcast
12:36 PM 44.6 °F 35.5 °F 26.6 °F 49% 29.65 in 10.0 mi NNW 25.3 mph 33.4 mph N/A   Overcast
12:56 PM 44.6 °F 36.4 °F 24.8 °F 46% 29.65 in 10.0 mi North 20.7 mph 34.5 mph N/A   Scattered Clouds
1:15 PM 46.4 °F 38.7 °F 24.8 °F 43% 29.64 in - NNW 20.7 mph 34.5 mph 0.03 in   Clear
1:16 PM 46.4 °F 38.5 °F 24.8 °F 43% 29.64 in - North 21.9 mph 34.5 mph 0.03 in   Clear
1:35 PM 46.4 °F 37.7 °F 23.0 °F 40% 29.65 in 10.0 mi North 26.5 mph 40.3 mph 0.03 in   Unknown
1:57 PM 46.4 °F 37.5 °F 24.8 °F 43% 29.65 in 10.0 mi North 27.6 mph 36.8 mph N/A   Clear
2:15 PM 46.4 °F 37.5 °F 23.0 °F 40% 29.65 in 10.0 mi NNW 27.6 mph 39.1 mph N/A   Clear
2:35 PM 46.4 °F 37.5 °F 21.2 °F 37% 29.66 in 10.0 mi NNW 27.6 mph 39.1 mph N/A   Clear
2:36 PM 46.4 °F 37.4 °F 21.2 °F 37% 29.66 in 10.0 mi NNW 28.8 mph 36.8 mph N/A   Clear
2:55 PM 48.2 °F - 23.0 °F 37% 29.66 in 10.0 mi NNW 17.3 mph 35.7 mph N/A   Clear
2:56 PM 48.2 °F - 23.0 °F 37% 29.66 in 10.0 mi NNW 21.9 mph 35.7 mph N/A   Clear
3:18 PM 48.2 °F - 21.2 °F 34% 29.66 in 10.0 mi NNW 23.0 mph 38.0 mph N/A   Clear
3:37 PM 48.2 °F - 21.2 °F 34% 29.67 in 10.0 mi NNW 19.6 mph 35.7 mph N/A   Clear
3:55 PM 48.2 °F - 21.2 °F 34% 29.68 in 10.0 mi NNW 23.0 mph 33.4 mph N/A   Clear
3:56 PM 48.2 °F - 21.2 °F 34% 29.68 in 10.0 mi NNW 23.0 mph 33.4 mph N/A   Clear
4:15 PM 48.2 °F - 23.0 °F 37% 29.68 in 10.0 mi NNW 13.8 mph 31.1 mph N/A   Clear
4:16 PM 48.2 °F - 23.0 °F 37% 29.68 in 10.0 mi NNW 18.4 mph 31.1 mph N/A   Clear
4:38 PM 48.2 °F - 23.0 °F 37% 29.69 in 10.0 mi NNW 16.1 mph 29.9 mph N/A   Clear
4:56 PM 46.4 °F 40.1 °F 23.0 °F 40% 29.70 in 10.0 mi NNW 15.0 mph 27.6 mph N/A   Clear
5:15 PM 46.4 °F 39.5 °F 24.8 °F 43% 29.70 in 10.0 mi NNW 17.3 mph 26.5 mph N/A   Clear
5:16 PM 46.4 °F 39.0 °F 24.8 °F 43% 29.71 in 10.0 mi NNW 19.6 mph 26.5 mph N/A   Clear
5:35 PM 46.4 °F 40.4 °F 24.8 °F 43% 29.71 in 10.0 mi NNW 13.8 mph 25.3 mph N/A   Clear
5:36 PM 46.4 °F 40.7 °F 24.8 °F 43% 29.71 in 10.0 mi NNW 12.7 mph 20.7 mph N/A   Clear
5:55 PM 44.6 °F 37.8 °F 24.8 °F 46% 29.72 in 10.0 mi NW 15.0 mph 23.0 mph N/A   Clear
5:59 PM 44.6 °F 38.4 °F 24.8 °F 46% 29.72 in 10.0 mi NNW 12.7 mph 23.0 mph N/A   Clear
6:16 PM 44.6 °F 38.4 °F 24.8 °F 46% 29.72 in 10.0 mi NNW 12.7 mph 19.6 mph N/A   Clear
6:36 PM 42.8 °F 35.8 °F 26.6 °F 53% 29.73 in 10.0 mi NNW 13.8 mph 21.9 mph N/A   Clear
6:55 PM 42.8 °F 36.2 °F 26.6 °F 53% 29.74 in 10.0 mi NNW 12.7 mph 20.7 mph N/A   Clear
6:56 PM 42.8 °F 36.2 °F 26.6 °F 53% 29.74 in 10.0 mi NNW 12.7 mph 20.7 mph N/A   Clear
7:15 PM 42.8 °F 37.0 °F 26.6 °F 53% 29.75 in 10.0 mi NNW 10.4 mph 17.3 mph N/A   Clear
7:19 PM 42.8 °F 37.0 °F 26.6 °F 53% 29.74 in 10.0 mi NNW 10.4 mph 16.1 mph N/A   Clear
7:38 PM 42.8 °F 37.5 °F 26.6 °F 53% 29.75 in 10.0 mi NNW 9.2 mph 16.1 mph N/A   Clear
7:56 PM 41.0 °F 35.8 °F 26.6 °F 57% 29.76 in 10.0 mi NNW 8.1 mph - N/A   Clear
8:15 PM 39.2 °F 34.2 °F 26.6 °F 61% 29.76 in 10.0 mi NNW 6.9 mph - N/A   Clear
8:16 PM 39.2 °F 35.0 °F 26.6 °F 61% 29.76 in 10.0 mi NW 5.8 mph - N/A   Clear
8:35 PM 39.2 °F 37.0 °F 26.6 °F 61% 29.76 in 10.0 mi NNW 3.5 mph - N/A   Clear
8:36 PM 39.2 °F 37.0 °F 26.6 °F 61% 29.76 in 10.0 mi NNW 3.5 mph - N/A   Clear
8:58 PM 39.2 °F 35.9 °F 26.6 °F 61% 29.76 in 10.0 mi NNW 4.6 mph - N/A   Clear
9:16 PM 39.2 °F 35.0 °F 26.6 °F 61% 29.76 in 10.0 mi NNW 5.8 mph - N/A   Clear
9:35 PM 37.4 °F 32.1 °F 26.6 °F 65% 29.77 in 10.0 mi NW 6.9 mph - N/A   Clear
9:36 PM 37.4 °F 32.1 °F 26.6 °F 65% 29.77 in 10.0 mi NW 6.9 mph - N/A   Clear
9:55 PM 37.4 °F 33.8 °F 26.6 °F 65% 29.77 in 10.0 mi NNW 4.6 mph - N/A   Clear
9:56 PM 37.4 °F 33.8 °F 26.6 °F 65% 29.77 in 10.0 mi NW 4.6 mph - N/A   Clear
10:15 PM 37.4 °F 32.8 °F 26.6 °F 65% 29.77 in 10.0 mi NW 5.8 mph - N/A   Clear
10:20 PM 37.4 °F 33.8 °F 26.6 °F 65% 29.77 in 10.0 mi NW 4.6 mph - N/A   Clear
10:37 PM 37.4 °F 33.8 °F 26.6 °F 65% 29.77 in 10.0 mi NW 4.6 mph - N/A   Clear
10:55 PM 37.4 °F 34.9 °F 26.6 °F 65% 29.77 in 10.0 mi NNW 3.5 mph - N/A   Clear
11:15 PM 35.6 °F - 26.6 °F 70% 29.76 in 10.0 mi Calm Calm - N/A   Clear
11:35 PM 35.6 °F 32.8 °F 26.6 °F 70% 29.76 in 10.0 mi NW 3.5 mph - N/A   Clear
11:58 PM 33.8 °F 30.8 °F 26.6 °F 75% 29.76 in 10.0 mi NW 3.5 mph - N/A   Clear